Location: Newark
(49.3808°N, 3.1844°E)
Time: 13:01:11
(UTC+00:00)

Vanguard 1 Rocket - Pass Details

Date: 15 November 2019
Orbit: 650 x 4226 km, 34.3° (Epoch: 05 December)

Event Time Altitude Azimuth Distance (km) Brightness Sun altitude
Rises 06:30:18 0° 242° (WSW) 3,184 9.8 -4.8°
Reaches altitude 10° 06:32:51 10° 226° (SW) 2,469 9.4 -4.4°
Maximum altitude 06:37:12 22° 176° (S) 2,167 9.7 -3.8°
Drops below altitude 10° 06:43:30 10° 129° (SE) 3,718 12.2 -2.9°
Sets 06:48:31 0° 117° (ESE) 5,362 15.3 -2.1°
